This is the latest recevied weather packets stored in our database for station/object KN6WGU. If no packets are shown the sender has not sent any weather packets the latest 10 day(s).
| Time | Temp. | Humidity | Pressure | Rain* | Wind** | Luminosity | Snow |
|---|---|---|---|---|---|---|---|
| 1787530244 | 21.11° C | 67% | 1004.6 hPa | 0 mm | - | 4 W/m² | - |
| 1787529941 | 21.11° C | 66% | 1004.7 hPa | 0 mm | - | 6 W/m² | - |
| 1787529636 | 21.11° C | 66% | 1004.8 hPa | 0 mm | - | 8 W/m² | - |
| 1787529331 | 21.67° C | 66% | 1004.7 hPa | 0 mm | - | 10 W/m² | - |
| 1787529025 | 21.67° C | 66% | 1004.9 hPa | 0 mm | - | 13 W/m² | - |
| 1787528722 | 21.67° C | 65% | 1005 hPa | 0 mm | - | 13 W/m² | - |
| 1787528421 | 21.67° C | 65% | 1004.9 hPa | 0 mm | - | 21 W/m² | - |
| 1787528118 | 21.67° C | 65% | 1005.1 hPa | 0 mm | - | 22 W/m² | - |
| 1787527814 | 21.67° C | 65% | 1004.9 hPa | 0 mm | - | 24 W/m² | - |
| 1787527509 | 21.67° C | 64% | 1004.9 hPa | 0 mm | - | 29 W/m² | - |
| 1787527204 | 22.22° C | 63% | 1005 hPa | 0 mm | - | 35 W/m² | - |
| 1787526895 | 22.22° C | 63% | 1005 hPa | 0 mm | - | 40 W/m² | - |
| 1787526590 | 22.22° C | 62% | 1005 hPa | 0 mm | - | 48 W/m² | - |
| 1787526287 | 22.22° C | 63% | 1005 hPa | 0 mm | - | 56 W/m² | - |
| 1787525983 | 22.22° C | 62% | 1005 hPa | 0 mm | - | 75 W/m² | - |
| 1787525678 | 22.22° C | 62% | 1005.2 hPa | 0 mm | - | 71 W/m² | - |
| 1787525372 | 22.22° C | 62% | 1005.2 hPa | 0 mm | - | 65 W/m² | - |
| 1787525069 | 22.22° C | 62% | 1005.3 hPa | 0 mm | - | 61 W/m² | - |
| 1787524768 | 22.78° C | 62% | 1005.2 hPa | 0 mm | - | 59 W/m² | - |
| 1787524465 | 22.78° C | 62% | 1005.6 hPa | 0 mm | - | 71 W/m² | - |
| 1787524159 | 22.78° C | 62% | 1005.5 hPa | 0 mm | - | 86 W/m² | - |
| 1787523854 | 22.78° C | 62% | 1005.5 hPa | 0 mm | - | 88 W/m² | - |
| 1787523549 | 22.78° C | 60% | 1005.2 hPa | 0 mm | - | 68 W/m² | - |
| 1787523244 | 22.78° C | 62% | 1005.6 hPa | 0 mm | - | 91 W/m² | - |
| 1787522941 | 22.78° C | 61% | 1005.5 hPa | 0 mm | - | 90 W/m² | - |
* Rain latest hour (hover to see other rain measurements)
** Current wind speed in m/s (hover to see current wind gust speed)